C/2015 V1 ( PanSTARRS )

Japanese version
Home page
Updated on May 20, 2019

---------------------------------------------------------------------

* Profile

Discovery Date November 2, 2015
Magnitude 20.2 mag
Discoverer Pan-STARRS 1 telescope (Haleakala)

* Pictures

* Orbital Elements

Epoch 2018 Jan. 2.0 TT = JDT 2458120.5
T 2017 Dec. 17.73687 TT                                 MPCW
q   4.2667859            (2000.0)            P               Q
z  -0.0001225      Peri.  179.63925     +0.95387996     +0.22988443
 +/-0.0000002      Node   197.19417     +0.27375606     -0.40230238
e   1.0005225      Incl.  139.22912     +0.12316919     -0.88617489
From 2079 observations 2015 Nov. 2-2018 Dec. 13, mean residual 0".5.

* Finding Charts

* Magnitudes Graph

        m1 = 5.5 + 5 log d + 11.0 log r(t + 180)

---------------------------------------------------------------------

The orbital elements are published on M.P.E.C. 2019-J142.
The charts are made with StellaNavigator Ver.8 (AstroArts).
The magnitudes graphs are made with Comet for Windows.

---------------------------------------------------------------------

Copyright(C) Seiichi Yoshida (comet@aerith.net). All rights reserved.